Orbital Elements
Epoch 2022 Aug. 9.0 TT = JDT 2459800.5
T 2023 Jan. 21.68153 TT Rudenko
q 0.8382565 (2000.0) P Q
z -0.0004325 Peri. 267.97043 +0.10910875 -0.91939771
+/-0.0001596 Node 157.32183 +0.54491843 +0.37327191
e 1.0003625 Incl. 78.55877 -0.83135984 +0.12399974
>From 82 observations 2022 Sept. 19-Oct. 25, mean residual 0".5.
|